Weather reports worldwide

Advertisment
Spadeadam, United Kingdom (3224): temperature & dewpoint: 07.12.2017 13:00:00 - 13.12.2017 13:00:00 (GMT)Spadeadam, United Kingdom (3224): temperature -20cm: 07.12.2017 13:00:00 - 13.12.2017 13:00:00 (GMT)Spadeadam, United Kingdom (3224): wind speed & gusts: 07.12.2017 13:00:00 - 13.12.2017 13:00:00 (GMT)Spadeadam, United Kingdom (3224): wind direction: 07.12.2017 13:00:00 - 13.12.2017 13:00:00 (GMT)Spadeadam, United Kingdom (3224): reduced air pressure: 07.12.2017 13:00:00 - 13.12.2017 13:00:00 (GMT)Spadeadam, United Kingdom (3224): visibility: 07.12.2017 13:00:00 - 13.12.2017 13:00:00 (GMT)Spadeadam, United Kingdom (3224): precipitation: 07.12.2017 13:00:00 - 13.12.2017 13:00:00 (GMT)
Date & Time tt [°C] td [°C] tt -20cm [°C] ff [km/h] ff [kn] fx [km/h] fx [kn] dd ppp [hPa] vv [km] rr [mm]
13.12.2017 13:00:00 3,0 3,0 - 31 17 - - W - 10 0,0
13.12.2017 12:00:00 2,8 2,7 - 22 12 46 25 WSW 985,5 18 0,4
13.12.2017 11:00:00 2,9 2,7 - 39 21 65 35 W 986,3 10 4,8
13.12.2017 10:00:00 4,4 4,4 - 37 20 55 30 WSW 987,0 5 1,2
13.12.2017 09:00:00 3,7 3,6 1,9 31 17 57 31 SW 988,6 8 0,6
13.12.2017 08:00:00 3,8 3,7 - 31 17 - - SW 990,1 7 0,2
13.12.2017 07:00:00 3,6 3,6 - 28 15 - - SW 991,3 9 1,0
13.12.2017 06:00:00 3,0 3,0 - 13 7 - - WSW 992,6 0,4 0,4
13.12.2017 05:00:00 3,5 3,5 - 21 11 - - WSW 993,9 1,3 0,0
13.12.2017 04:00:00 3,0 3,0 - 24 13 - - W 994,7 6 0,0
13.12.2017 03:00:00 2,7 2,7 - 29 16 - - WSW 994,9 5 0,2
13.12.2017 02:00:00 2,7 2,7 - 28 15 - - W 995,3 11 0,0
13.12.2017 01:00:00 2,1 2,1 - 18 10 - - W 995,5 1,3 0,0
13.12.2017 00:00:00 2,5 2,5 - 24 13 46 25 W 995,7 3,8 0,0
12.12.2017 23:00:00 2,5 2,5 - 31 17 54 29 WSW 995,5 0,9 0,0
12.12.2017 22:00:00 2,0 2,0 - 31 17 52 28 WSW 995,3 0,3 1,6
12.12.2017 21:00:00 1,4 1,2 - 35 19 46 25 SW 995,9 6 1,0
12.12.2017 20:00:00 0,6 0,4 - 28 15 - - SSW 997,9 1,7 0,8
12.12.2017 19:00:00 1,0 0,8 - 21 11 - - SSW 999,0 5 1,2
12.12.2017 18:00:00 1,3 0,8 - 21 11 - - S 999,7 8 0,4
12.12.2017 17:00:00 1,0 0,3 - 16 9 - - SSW 1000,8 10 0,4
12.12.2017 16:00:00 1,1 0,5 - 16 9 - - SW 1001,5 10 0,2
12.12.2017 15:00:00 0,9 0,1 - 16 9 - - SW 1001,9 23 0,0
12.12.2017 14:00:00 0,7 -0,4 - 11 6 - - SW 1002,7 19 0,0
12.12.2017 13:00:00 0,9 -0,2 - 18 10 - - WSW 1003,2 10 0,0
12.12.2017 12:00:00 -0,1 -1,2 - 15 8 - - WSW 1003,6 10 0,0
12.12.2017 11:00:00 -1,2 -1,4 - 13 7 - - WSW 1004,2 10 0,0
12.12.2017 10:00:00 -2,7 -2,9 - 13 7 - - W - - 0,0
12.12.2017 09:00:00 -4,0 -5,0 - 8 4 - - W - 10 0,0
12.12.2017 08:00:00 -4,7 -5,0 - 15 8 - - W 1004,8 5 0,0
12.12.2017 07:00:00 -4,0 -4,2 - 16 9 - - W 1004,4 5 0,0
12.12.2017 06:00:00 -4,5 -4,7 - 18 10 - - W 1004,1 5 0,0
12.12.2017 05:00:00 -5,7 -5,9 - 13 7 - - W 1003,6 2,7 0,0
12.12.2017 04:00:00 -4,2 -4,3 - 11 6 - - W 1003,3 1,7 0,0
12.12.2017 03:00:00 -4,7 -4,9 - 13 7 - - WSW 1003,3 0,2 0,0
12.12.2017 02:00:00 -4,3 -4,6 - 15 8 - - W 1002,3 2,9 0,0
12.12.2017 01:00:00 -2,9 -3,3 - 13 7 - - WNW 1001,1 11 0,0
12.12.2017 00:00:00 -2,3 -2,7 - 5 3 - - N 999,9 10 0,0
11.12.2017 23:00:00 -0,6 -1,1 - 15 8 - - N 999,2 40 0,0
11.12.2017 22:00:00 -0,1 -0,5 - 15 8 - - NNW 998,8 21 0,0
11.12.2017 21:00:00 -1,2 -1,9 - 13 7 - - N 998,2 40 0,0
11.12.2017 20:00:00 0,1 -0,7 - 18 10 - - NNW 997,2 45 0,0
11.12.2017 19:00:00 -0,3 -0,9 - 15 8 - - N 995,5 50 0,0
11.12.2017 18:00:00 -3,3 -3,6 - 13 7 - - NNW 994,7 50 0,0
11.12.2017 17:00:00 -4,6 -5,2 - 5 3 - - WSW 994,4 30 0,0
11.12.2017 16:00:00 -3,8 -4,5 - 15 8 - - WNW 993,4 35 0,0
11.12.2017 15:00:00 -3,1 -4,0 - 9 5 - - WSW 992,6 35 0,0
11.12.2017 14:00:00 -1,4 -2,5 - 11 6 - - W 991,2 10 0,0
11.12.2017 13:00:00 -0,8 -1,7 - 4 2 - - S 990,7 10 0,0
11.12.2017 12:00:00 -1,5 -2,4 - 5 3 - - W 990,4 10 0,0
11.12.2017 11:00:00 -3,9 -4,4 - 5 3 - - WNW 990,5 10 0,0
11.12.2017 10:00:00 -5,3 -6,1 - 5 3 - - S 990,0 10 0,0
11.12.2017 09:00:00 -7,3 -8,1 2,4 15 8 - - W 989,5 10 0,0
11.12.2017 08:00:00 -6,6 -7,7 - 16 9 - - WSW 988,8 10 0,0
11.12.2017 07:00:00 -6,0 -7,1 - 11 6 - - W 987,8 10 0,0
11.12.2017 06:00:00 -7,5 -8,2 - 9 5 - - WNW 987,8 10 0,0
11.12.2017 05:00:00 -7,1 -7,7 - 13 7 - - WNW 987,8 50 0,0
11.12.2017 04:00:00 -7,7 -8,3 - 13 7 - - WSW 987,7 10 0,0
11.12.2017 03:00:00 -7,9 -8,5 - 8 4 - - SW 987,6 20 0,0
11.12.2017 02:00:00 -7,4 -7,8 - 8 4 - - W 986,7 10 0,0
11.12.2017 01:00:00 -7,0 -7,4 - 4 2 - - WSW 986,2 10 0,0
11.12.2017 00:00:00 -6,7 -7,4 - 8 4 - - W 985,8 10 0,0
10.12.2017 23:00:00 -6,4 -7,4 - 8 4 - - WSW 985,5 10 0,0
10.12.2017 22:00:00 -6,2 -7,8 - 2 1 - - W 984,7 10 0,0
10.12.2017 21:00:00 -4,7 -6,3 - 13 7 - - NNW 983,8 10 0,0
10.12.2017 20:00:00 -5,5 -6,6 - 9 5 - - N 983,4 40 0,0
10.12.2017 19:00:00 -5,3 -6,1 - 11 6 - - N 983,0 10 0,0
10.12.2017 18:00:00 -5,4 -6,2 - 11 6 - - N 982,6 45 0,0
10.12.2017 17:00:00 -5,0 -5,7 - 9 5 - - N 982,2 10 0,0
10.12.2017 16:00:00 -4,6 -5,7 - 13 7 - - N 981,9 50 0,0
10.12.2017 15:00:00 -3,7 -5,0 - 11 6 - - N 981,5 10 0,0
10.12.2017 14:00:00 -3,1 -4,6 - 15 8 - - NNE 981,2 10 0,0
10.12.2017 13:00:00 -2,5 -4,6 - 9 5 - - NE 981,5 10 0,0
10.12.2017 12:00:00 -2,2 -4,4 - 9 5 - - NE 982,0 45 0,0
10.12.2017 11:00:00 -3,5 -4,9 - 9 5 - - NE 982,8 10 0,0
10.12.2017 10:00:00 -4,5 -5,5 - 11 6 - - NE 983,7 50 0,0
10.12.2017 09:00:00 -5,0 -5,9 2,7 11 6 - - NE 984,8 10 0,0
10.12.2017 08:00:00 -5,0 -5,5 - 11 6 - - NE 985,8 45 0,0
10.12.2017 07:00:00 -4,5 -4,9 - 11 6 - - NNE 986,7 35 0,0
10.12.2017 06:00:00 -3,2 -3,4 - 11 6 - - ENE 988,0 15 0,0
10.12.2017 05:00:00 -2,6 -2,8 - 5 3 - - ENE 989,9 10 0,0
10.12.2017 04:00:00 -2,4 -2,6 - 8 4 - - WNW 991,8 25 0,0
10.12.2017 03:00:00 -2,3 -2,3 - 5 3 - - WSW 994,1 10 0,0
10.12.2017 02:00:00 -2,5 -2,6 - 5 3 - - NW 995,9 10 0,0
10.12.2017 01:00:00 -2,2 -2,2 - 9 5 - - WSW 997,2 10 0,0
10.12.2017 00:00:00 -2,2 -2,3 - 11 6 - - WSW 999,3 14 0,0
09.12.2017 23:00:00 -2,1 -2,2 - 11 6 - - W 1000,8 10 0,0
09.12.2017 22:00:00 -3,1 -3,2 - 9 5 - - W 1002,4 9 0,0
09.12.2017 21:00:00 -3,7 -4,0 - 13 7 - - WSW 1003,5 10 0,0
09.12.2017 20:00:00 -3,0 -3,1 - 16 9 - - W 1004,8 10 0,0
09.12.2017 19:00:00 -3,4 -3,6 - 11 6 - - W 1006,0 12 0,0
09.12.2017 18:00:00 -3,3 -3,5 - 16 9 - - W 1006,7 10 0,0
09.12.2017 17:00:00 -3,7 -3,9 - 16 9 - - W 1007,4 10 0,0
09.12.2017 16:00:00 -3,5 -4,0 - 13 7 - - W 1008,5 10 0,0
09.12.2017 15:00:00 -1,2 -1,9 - 16 9 - - WSW 1008,8 10 0,0
09.12.2017 14:00:00 -0,7 -1,9 - 28 15 - - WSW 1009,5 10 0,0
09.12.2017 13:00:00 -0,6 -1,9 - 24 13 - - WSW 1010,7 10 0,0
09.12.2017 12:00:00 -1,6 -2,0 - 21 11 - - WSW 1011,6 10 0,0
09.12.2017 11:00:00 -2,2 -2,5 - 13 7 - - SW 1012,8 10 0,0
09.12.2017 10:00:00 -3,6 -4,0 - 9 5 - - S 1013,6 10 0,0
09.12.2017 09:00:00 -4,9 -5,4 3,4 9 5 - - WSW 1014,2 10 0,0
09.12.2017 08:00:00 -4,2 -4,6 - 13 7 - - W 1014,4 35 0,0
09.12.2017 07:00:00 -4,0 -4,5 - 11 6 - - WSW 1015,0 10 0,0
09.12.2017 06:00:00 -4,5 -5,1 - 15 8 - - WSW 1015,4 10 0,0
09.12.2017 05:00:00 -3,9 -4,6 - 16 9 - - WSW 1015,6 35 0,0
09.12.2017 04:00:00 -5,3 -5,9 - 13 7 - - S 1016,2 10 0,0
09.12.2017 03:00:00 -4,7 -5,3 - 16 9 - - SW 1016,5 10 0,0
09.12.2017 02:00:00 -4,2 -5,0 - 16 9 - - WSW 1016,8 10 0,0
09.12.2017 01:00:00 -4,2 -5,1 - 18 10 - - WSW 1016,6 30 0,0
09.12.2017 00:00:00 -3,4 -4,5 - 21 11 - - WSW 1016,7 10 0,0
08.12.2017 23:00:00 -4,1 -5,0 - 18 10 - - WSW 1016,2 45 0,0
08.12.2017 22:00:00 -4,0 -5,3 - 28 15 - - W 1016,0 10 0,0
08.12.2017 21:00:00 -4,1 -5,5 - 22 12 - - W 1016,0 10 0,0
08.12.2017 20:00:00 -3,7 -4,8 - 22 12 - - WNW 1015,5 10 0,0
08.12.2017 19:00:00 -2,8 -4,5 - 37 20 46 25 WNW 1014,5 10 0,0
08.12.2017 18:00:00 -2,9 -4,4 - 34 18 - - W 1014,1 45 0,0
08.12.2017 17:00:00 -3,2 -4,7 - 22 12 - - W 1014,6 10 0,0
08.12.2017 16:00:00 -2,4 -4,3 - 22 12 - - W 1013,7 10 0,0
08.12.2017 15:00:00 -1,7 -4,0 - 21 11 - - W 1013,4 10 0,0
08.12.2017 14:00:00 -1,3 -3,2 - 26 14 - - W 1013,3 10 0,0
08.12.2017 13:00:00 -1,3 -3,1 - 31 17 - - W 1012,9 10 0,0
08.12.2017 12:00:00 -1,6 -3,1 - 31 17 - - W 1012,6 10 0,0
08.12.2017 11:00:00 -2,2 -3,2 - 31 17 - - W 1012,4 10 0,0
08.12.2017 10:00:00 -2,8 -3,7 - 24 13 - - W 1012,0 10 0,0
08.12.2017 09:00:00 -3,7 -4,4 4,7 24 13 - - W 1011,4 10 0,0
08.12.2017 08:00:00 -3,4 -4,1 - 28 15 - - W 1010,6 10 0,0
08.12.2017 07:00:00 -3,1 -3,9 - 29 16 - - W 1009,9 10 0,0
08.12.2017 06:00:00 -3,1 -3,8 - 22 12 - - W 1009,7 10 0,0
08.12.2017 05:00:00 -2,2 -2,8 - 26 14 - - W 1009,0 10 0,0
08.12.2017 04:00:00 -2,0 -2,3 - 21 11 - - W 1008,1 10 0,0
08.12.2017 03:00:00 -1,5 -1,5 - 21 11 - - W 1008,2 10 0,0
08.12.2017 02:00:00 -1,0 -1,0 - 24 13 - - W 1007,5 10 0,0
08.12.2017 01:00:00 -0,6 -0,6 - 28 15 - - W 1006,6 10 0,0
08.12.2017 00:00:00 -0,2 -0,2 - 18 10 - - W 1006,3 1,3 0,0
07.12.2017 23:00:00 -0,1 -0,1 - 21 11 - - W 1005,6 4,3 0,0
07.12.2017 22:00:00 -0,1 -0,1 - 24 13 - - W 1005,3 0,4 0,0
07.12.2017 21:00:00 0,0 0,0 - 26 14 - - W 1004,8 0,9 0,0
07.12.2017 20:00:00 0,2 0,1 - 37 20 50 27 W 1004,7 0,9 0,0
07.12.2017 19:00:00 0,3 0,3 - 28 15 46 25 W 1004,4 13 0,0
07.12.2017 18:00:00 0,8 0,6 - 31 17 54 29 W 1003,8 10 0,0
07.12.2017 17:00:00 1,0 0,6 - 29 16 48 26 W 1003,4 10 0,0
07.12.2017 16:00:00 1,1 0,8 - 31 17 50 27 W 1002,8 10 0,0
07.12.2017 15:00:00 1,6 1,0 - 29 16 68 37 W 1002,4 10 0,8
07.12.2017 14:00:00 3,1 1,8 - 41 22 65 35 W 1001,7 10 0,2
07.12.2017 13:00:00 2,1 1,1 - 34 18 65 35 WNW 1001,8 3,6 0,4

tt = temperature
td = dewpoint
tt -20cm = temperature -20cm
ff = wind speed
fx = gusts
dd = wind direction
ppp = reduced air pressure
vv = visibility
rr = precipitation

Next stations